GLO3426 SBPS-SBRJ

Flight info

Callsign GLO3426
Flight time 1h 22m
Altitude 36000
Route EDPOX UZ95 MCA
Aircraft B738/M-SDE2E3FGHIRWXY/LB1

Departure

Time 2026-04-19 22:40
Airport Porto Seguro International Airport (SBPS)

Arrival

Time 2026-04-20 00:03
Airport Santos Dumont Airport (SBRJ)
Time Latitude Longitude Altitude Speed Heading
2026-04-19 22:29 -16.44076 -39.08130 185 ft 0 kts 164°
2026-04-19 22:32 -16.44068 -39.08132 185 ft 2 kts 167°
2026-04-19 22:32 -16.44054 -39.08135 185 ft 2 kts 189°
2026-04-19 22:32 -16.44039 -39.08129 185 ft 2 kts 217°
2026-04-19 22:32 -16.44030 -39.08117 185 ft 2 kts 247°
2026-04-19 22:33 -16.44026 -39.08102 185 ft 2 kts 257°
2026-04-19 22:33 -16.44022 -39.08087 185 ft 2 kts 253°
2026-04-19 22:33 -16.44018 -39.08073 185 ft 0 kts 255°
2026-04-19 22:35 -16.44015 -39.08089 185 ft 6 kts 293°
2026-04-19 22:35 -16.43956 -39.08129 185 ft 3 kts 345°
2026-04-19 22:37 -16.43955 -39.08129 185 ft 0 kts 345°
2026-04-19 22:38 -16.43944 -39.08132 185 ft 4 kts 345°
2026-04-19 22:38 -16.43893 -39.08155 185 ft 11 kts 308°
2026-04-19 22:38 -16.43903 -39.08260 185 ft 18 kts 254°
2026-04-19 22:38 -16.43943 -39.08412 185 ft 25 kts 254°
2026-04-19 22:39 -16.43998 -39.08613 185 ft 32 kts 255°
2026-04-19 22:39 -16.44065 -39.08859 185 ft 33 kts 255°
2026-04-19 22:39 -16.44068 -39.08978 185 ft 9 kts 261°
2026-04-19 22:39 -16.44099 -39.08984 185 ft 0 kts 68°
2026-04-19 22:40 -16.44095 -39.08970 185 ft 14 kts 74°
2026-04-19 22:40 -16.43988 -39.08572 185 ft 97 kts 73°
2026-04-19 22:40 -16.43740 -39.07652 202 ft 162 kts 76°
2026-04-19 22:40 -16.43487 -39.06508 991 ft 162 kts 77°
2026-04-19 22:41 -16.43243 -39.05353 1706 ft 173 kts 77°
2026-04-19 22:41 -16.43011 -39.04075 2179 ft 192 kts 85°
2026-04-19 22:41 -16.43124 -39.02608 2609 ft 214 kts 107°
2026-04-19 22:41 -16.43967 -39.01300 3170 ft 231 kts 144°
2026-04-19 22:42 -16.45524 -39.00756 3781 ft 248 kts 178°
2026-04-19 22:42 -16.47280 -39.00923 4445 ft 261 kts 188°
2026-04-19 22:42 -16.49083 -39.01218 5262 ft 268 kts 188°
2026-04-19 22:42 -16.50956 -39.01458 6162 ft 272 kts 186°
2026-04-19 22:43 -16.52842 -39.01643 7027 ft 276 kts 185°
2026-04-19 22:43 -16.54768 -39.01807 7891 ft 279 kts 185°
2026-04-19 22:43 -16.56706 -39.01965 8736 ft 283 kts 184°
2026-04-19 22:43 -16.58689 -39.02128 9531 ft 287 kts 184°
2026-04-19 22:44 -16.60701 -39.02295 10305 ft 293 kts 184°
2026-04-19 22:44 -16.62772 -39.02537 10817 ft 307 kts 191°
2026-04-19 22:44 -16.64876 -39.03079 11290 ft 321 kts 197°
2026-04-19 22:44 -16.67067 -39.03814 11885 ft 331 kts 199°
2026-04-19 22:45 -16.69270 -39.04601 12559 ft 337 kts 199°
2026-04-19 22:45 -16.71500 -39.05392 13295 ft 340 kts 199°
2026-04-19 22:45 -16.73754 -39.06173 14019 ft 343 kts 199°
2026-04-19 22:45 -16.76045 -39.06952 14671 ft 349 kts 199°
2026-04-19 22:46 -16.78365 -39.07730 15391 ft 351 kts 199°
2026-04-19 22:46 -16.80695 -39.08507 16048 ft 355 kts 199°
2026-04-19 22:46 -16.83061 -39.09295 16701 ft 358 kts 199°
2026-04-19 22:46 -16.85449 -39.10090 17325 ft 362 kts 199°
2026-04-19 22:47 -16.87864 -39.10895 17916 ft 367 kts 199°
2026-04-19 22:47 -16.90315 -39.11713 18531 ft 370 kts 199°
2026-04-19 22:47 -16.92751 -39.12526 19132 ft 373 kts 200°
2026-04-19 22:47 -16.95246 -39.13360 19698 ft 377 kts 200°
2026-04-19 22:48 -16.97745 -39.14195 20249 ft 381 kts 200°
2026-04-19 22:48 -17.00290 -39.15045 20804 ft 384 kts 200°
2026-04-19 22:48 -17.02841 -39.15897 21365 ft 387 kts 200°
2026-04-19 22:48 -17.05419 -39.16759 21873 ft 390 kts 200°
2026-04-19 22:49 -17.08030 -39.17632 22388 ft 394 kts 200°
2026-04-19 22:49 -17.10661 -39.18512 22907 ft 396 kts 200°
2026-04-19 22:49 -17.13325 -39.19416 23427 ft 398 kts 202°
2026-04-19 22:49 -17.15901 -39.20448 23892 ft 401 kts 205°
2026-04-19 22:50 -17.18465 -39.21624 24408 ft 402 kts 207°
2026-04-19 22:50 -17.21025 -39.22865 24926 ft 403 kts 208°
2026-04-19 22:50 -17.23551 -39.24110 25356 ft 407 kts 208°
2026-04-19 22:50 -17.26134 -39.25383 25819 ft 409 kts 208°
2026-04-19 22:51 -17.28726 -39.26652 26302 ft 411 kts 208°
2026-04-19 22:51 -17.33944 -39.29183 27166 ft 415 kts 208°
2026-04-19 22:51 -17.36574 -39.30450 27556 ft 418 kts 208°
2026-04-19 22:52 -17.39231 -39.31727 28012 ft 419 kts 208°
2026-04-19 22:52 -17.41905 -39.33010 28355 ft 423 kts 208°
2026-04-19 22:52 -17.44585 -39.34295 28815 ft 423 kts 209°
2026-04-19 22:52 -17.47293 -39.35593 29157 ft 427 kts 208°
2026-04-19 22:53 -17.49976 -39.36879 29518 ft 429 kts 208°
2026-04-19 22:53 -17.52711 -39.38189 29985 ft 429 kts 208°
2026-04-19 22:53 -17.55439 -39.39495 30368 ft 431 kts 208°
2026-04-19 22:53 -17.58188 -39.40813 30737 ft 433 kts 208°
2026-04-19 22:54 -17.60902 -39.42114 31129 ft 434 kts 208°
2026-04-19 22:54 -17.63685 -39.43449 31471 ft 436 kts 208°
2026-04-19 22:54 -17.66454 -39.44778 31810 ft 438 kts 208°
2026-04-19 22:54 -17.69248 -39.46120 32108 ft 441 kts 208°
2026-04-19 22:55 -17.72030 -39.47456 32442 ft 442 kts 208°
2026-04-19 22:55 -17.74835 -39.48804 32904 ft 440 kts 208°
2026-04-19 22:55 -17.77602 -39.50131 33469 ft 436 kts 208°
2026-04-19 22:55 -17.80356 -39.51453 33967 ft 434 kts 208°
2026-04-19 22:56 -17.83092 -39.52767 34409 ft 432 kts 208°
2026-04-19 22:56 -17.85809 -39.54073 34850 ft 430 kts 208°
2026-04-19 22:56 -17.88538 -39.55386 35278 ft 429 kts 209°
2026-04-19 22:56 -17.91270 -39.56701 35650 ft 428 kts 209°
2026-04-19 22:57 -17.93955 -39.57995 35941 ft 427 kts 209°
2026-04-19 22:57 -17.96681 -39.59309 35949 ft 427 kts 209°
2026-04-19 22:57 -18.02014 -39.61879 35951 ft 418 kts 209°
2026-04-19 22:58 -18.07344 -39.64453 35948 ft 421 kts 209°
2026-04-19 22:58 -18.12699 -39.67042 35948 ft 421 kts 209°
2026-04-19 22:59 -18.18028 -39.69617 35949 ft 422 kts 209°
2026-04-19 22:59 -18.23389 -39.72208 35948 ft 422 kts 209°
2026-04-19 23:00 -18.28741 -39.74799 35947 ft 421 kts 209°
2026-04-19 23:00 -18.34060 -39.77374 35951 ft 422 kts 209°
2026-04-19 23:01 -18.39426 -39.79974 35946 ft 421 kts 209°
2026-04-19 23:01 -18.44760 -39.82559 35948 ft 421 kts 209°
2026-04-19 23:02 -18.50080 -39.85138 35947 ft 421 kts 209°
2026-04-19 23:02 -18.55429 -39.87733 35946 ft 422 kts 209°
2026-04-19 23:03 -18.60729 -39.90304 35948 ft 419 kts 209°
2026-04-19 23:03 -18.66090 -39.92909 35946 ft 421 kts 209°
2026-04-19 23:04 -18.71402 -39.95492 35944 ft 421 kts 209°
2026-04-19 23:04 -18.76764 -39.98104 35949 ft 422 kts 209°
2026-04-19 23:05 -18.82099 -40.00702 35953 ft 420 kts 208°
2026-04-19 23:05 -18.87417 -40.03296 35955 ft 422 kts 208°
2026-04-19 23:06 -18.92739 -40.05893 35968 ft 422 kts 209°
2026-04-19 23:06 -18.98105 -40.08509 35972 ft 422 kts 208°
2026-04-19 23:07 -19.03462 -40.11125 35976 ft 423 kts 208°
2026-04-19 23:07 -19.08803 -40.13733 35976 ft 421 kts 208°
2026-04-19 23:08 -19.14151 -40.16347 35975 ft 421 kts 208°
2026-04-19 23:08 -19.19471 -40.18951 35975 ft 422 kts 208°
2026-04-19 23:09 -19.24819 -40.21570 35976 ft 422 kts 208°
2026-04-19 23:09 -19.30170 -40.24192 35974 ft 421 kts 208°
2026-04-19 23:10 -19.35479 -40.26796 35979 ft 420 kts 208°
2026-04-19 23:10 -19.40822 -40.29419 35975 ft 422 kts 208°
2026-04-19 23:11 -19.46165 -40.32041 35978 ft 422 kts 208°
2026-04-19 23:11 -19.51470 -40.34647 35978 ft 421 kts 208°
2026-04-19 23:12 -19.56817 -40.37276 35983 ft 422 kts 208°
2026-04-19 23:12 -19.62142 -40.39897 35994 ft 422 kts 208°
2026-04-19 23:13 -19.67479 -40.42525 36008 ft 421 kts 208°
2026-04-19 23:13 -19.72794 -40.45146 36024 ft 421 kts 208°
2026-04-19 23:14 -19.78098 -40.47762 36040 ft 421 kts 208°
2026-04-19 23:14 -19.83416 -40.50388 36047 ft 421 kts 208°
2026-04-19 23:15 -19.88767 -40.53030 36058 ft 421 kts 208°
2026-04-19 23:15 -19.94055 -40.55642 36055 ft 419 kts 208°
2026-04-19 23:16 -19.99388 -40.58285 36062 ft 420 kts 208°
2026-04-19 23:16 -20.04676 -40.60909 36061 ft 420 kts 208°
2026-04-19 23:17 -20.09994 -40.63552 36058 ft 421 kts 208°
2026-04-19 23:17 -20.15362 -40.66233 36058 ft 421 kts 208°
2026-04-19 23:18 -20.20659 -40.68885 36053 ft 421 kts 208°
2026-04-19 23:18 -20.25960 -40.71538 36052 ft 421 kts 208°
2026-04-19 23:19 -20.31298 -40.74201 36056 ft 421 kts 208°
2026-04-19 23:19 -20.36605 -40.76849 36060 ft 420 kts 208°
2026-04-19 23:20 -20.41923 -40.79507 36065 ft 421 kts 208°
2026-04-19 23:20 -20.47239 -40.82165 36076 ft 421 kts 208°
2026-04-19 23:21 -20.52530 -40.84816 36085 ft 422 kts 208°
2026-04-19 23:21 -20.57868 -40.87492 36076 ft 422 kts 208°
2026-04-19 23:22 -20.63194 -40.90159 36069 ft 423 kts 208°
2026-04-19 23:22 -20.68525 -40.92822 36063 ft 421 kts 208°
2026-04-19 23:23 -20.73830 -40.95476 36055 ft 422 kts 208°
2026-04-19 23:23 -20.79155 -40.98142 36043 ft 422 kts 208°
2026-04-19 23:24 -20.84502 -41.00820 36033 ft 421 kts 208°
2026-04-19 23:24 -20.89821 -41.03489 36021 ft 422 kts 208°
2026-04-19 23:25 -20.95153 -41.06163 36011 ft 422 kts 208°
2026-04-19 23:25 -21.00475 -41.08834 36017 ft 422 kts 208°
2026-04-19 23:26 -21.05817 -41.11517 36015 ft 422 kts 208°
2026-04-19 23:26 -21.11163 -41.14205 36016 ft 422 kts 208°
2026-04-19 23:27 -21.16494 -41.16888 36013 ft 421 kts 208°
2026-04-19 23:27 -21.21794 -41.19556 36004 ft 421 kts 208°
2026-04-19 23:28 -21.27108 -41.22235 35996 ft 422 kts 208°
2026-04-19 23:28 -21.32442 -41.24926 35995 ft 422 kts 208°
2026-04-19 23:29 -21.37757 -41.27608 35994 ft 422 kts 207°
2026-04-19 23:29 -21.43099 -41.30305 35997 ft 422 kts 208°
2026-04-19 23:30 -21.48418 -41.32992 35993 ft 421 kts 208°
2026-04-19 23:30 -21.53729 -41.35680 35996 ft 421 kts 208°
2026-04-19 23:31 -21.59013 -41.38367 35994 ft 421 kts 208°
2026-04-19 23:31 -21.64306 -41.41063 35992 ft 421 kts 208°
2026-04-19 23:32 -21.69600 -41.43760 35996 ft 422 kts 207°
2026-04-19 23:32 -21.74941 -41.46475 35999 ft 422 kts 207°
2026-04-19 23:33 -21.80273 -41.49186 36003 ft 421 kts 207°
2026-04-19 23:33 -21.85580 -41.51888 36003 ft 422 kts 207°
2026-04-19 23:34 -21.90910 -41.54604 36008 ft 422 kts 207°
2026-04-19 23:34 -21.96188 -41.57296 36005 ft 421 kts 207°
2026-04-19 23:35 -22.01520 -41.60017 36003 ft 421 kts 207°
2026-04-19 23:35 -22.06828 -41.62729 36003 ft 421 kts 207°
2026-04-19 23:36 -22.12133 -41.65442 35992 ft 422 kts 208°
2026-04-19 23:36 -22.14787 -41.66798 35731 ft 418 kts 208°
2026-04-19 23:36 -22.17426 -41.68149 35272 ft 419 kts 208°
2026-04-19 23:37 -22.20068 -41.69502 34644 ft 420 kts 207°
2026-04-19 23:37 -22.22695 -41.70847 33930 ft 420 kts 207°
2026-04-19 23:37 -22.25348 -41.72207 33183 ft 421 kts 207°
2026-04-19 23:37 -22.28002 -41.73567 32439 ft 423 kts 207°
2026-04-19 23:38 -22.30638 -41.74919 31683 ft 424 kts 207°
2026-04-19 23:38 -22.33313 -41.76294 31105 ft 421 kts 208°
2026-04-19 23:38 -22.35873 -41.77734 30507 ft 417 kts 212°
2026-04-19 23:38 -22.38385 -41.79340 29903 ft 414 kts 214°
2026-04-19 23:39 -22.40798 -41.80984 29309 ft 412 kts 215°
2026-04-19 23:39 -22.43196 -41.82658 28735 ft 409 kts 215°
2026-04-19 23:39 -22.45581 -41.84333 28154 ft 407 kts 215°
2026-04-19 23:39 -22.47957 -41.85996 27570 ft 406 kts 215°
2026-04-19 23:40 -22.50324 -41.87645 26990 ft 404 kts 215°
2026-04-19 23:40 -22.52686 -41.89283 26393 ft 403 kts 214°
2026-04-19 23:40 -22.55044 -41.90910 25809 ft 401 kts 214°
2026-04-19 23:40 -22.57389 -41.92524 25220 ft 399 kts 214°
2026-04-19 23:41 -22.59729 -41.94131 24634 ft 398 kts 214°
2026-04-19 23:41 -22.62075 -41.95741 24045 ft 396 kts 213°
2026-04-19 23:41 -22.64407 -41.97340 23461 ft 395 kts 213°
2026-04-19 23:41 -22.66709 -41.98918 22883 ft 393 kts 213°
2026-04-19 23:42 -22.69026 -42.00506 22280 ft 392 kts 213°
2026-04-19 23:42 -22.71315 -42.02077 21702 ft 390 kts 213°
2026-04-19 23:42 -22.73597 -42.03642 21109 ft 388 kts 213°
2026-04-19 23:42 -22.75895 -42.05219 20521 ft 386 kts 213°
2026-04-19 23:43 -22.78143 -42.06783 19935 ft 384 kts 215°
2026-04-19 23:43 -22.80235 -42.08587 19351 ft 381 kts 224°
2026-04-19 23:43 -22.81935 -42.10754 18751 ft 370 kts 236°
2026-04-19 23:43 -22.83157 -42.13118 18229 ft 356 kts 244°
2026-04-19 23:44 -22.84081 -42.15567 17684 ft 344 kts 249°
2026-04-19 23:44 -22.84830 -42.17966 17171 ft 333 kts 251°
2026-04-19 23:44 -22.85497 -42.20306 16670 ft 323 kts 251°
2026-04-19 23:44 -22.86137 -42.22606 16180 ft 314 kts 251°
2026-04-19 23:45 -22.86763 -42.24840 15691 ft 305 kts 251°
2026-04-19 23:45 -22.87377 -42.26997 15218 ft 297 kts 251°
2026-04-19 23:45 -22.87984 -42.29104 14754 ft 290 kts 251°
2026-04-19 23:45 -22.88584 -42.31170 14303 ft 283 kts 251°
2026-04-19 23:46 -22.89172 -42.33189 13864 ft 276 kts 250°
2026-04-19 23:46 -22.89741 -42.35146 13435 ft 270 kts 250°
2026-04-19 23:46 -22.90296 -42.37052 13019 ft 264 kts 250°
2026-04-19 23:46 -22.90844 -42.38935 12608 ft 258 kts 251°
2026-04-19 23:47 -22.91380 -42.40780 12231 ft 256 kts 251°
2026-04-19 23:47 -22.91915 -42.42620 11795 ft 259 kts 251°
2026-04-19 23:47 -22.92454 -42.44474 11392 ft 260 kts 251°
2026-04-19 23:47 -22.93000 -42.46355 10977 ft 262 kts 251°
2026-04-19 23:48 -22.93763 -42.48138 10631 ft 258 kts 229°
2026-04-19 23:48 -22.95137 -42.49320 10468 ft 249 kts 211°
2026-04-19 23:48 -22.96655 -42.50159 10391 ft 243 kts 207°
2026-04-19 23:48 -22.98195 -42.50945 10329 ft 245 kts 207°
2026-04-19 23:49 -22.99751 -42.51733 10258 ft 243 kts 207°
2026-04-19 23:49 -23.01290 -42.52514 10190 ft 244 kts 207°
2026-04-19 23:49 -23.02838 -42.53301 10034 ft 245 kts 207°
2026-04-19 23:49 -23.04361 -42.54081 9843 ft 242 kts 210°
2026-04-19 23:50 -23.05620 -42.55253 9786 ft 240 kts 239°
2026-04-19 23:50 -23.06048 -42.57014 9602 ft 246 kts 269°
2026-04-19 23:50 -23.05800 -42.58838 9316 ft 247 kts 278°
2026-04-19 23:50 -23.05469 -42.60675 8992 ft 246 kts 276°
2026-04-19 23:51 -23.05232 -42.62501 8682 ft 244 kts 274°
2026-04-19 23:51 -23.05057 -42.64331 8375 ft 242 kts 272°
2026-04-19 23:51 -23.04905 -42.66151 8064 ft 241 kts 272°
2026-04-19 23:51 -23.04757 -42.67939 7760 ft 240 kts 272°
2026-04-19 23:52 -23.04604 -42.69747 7416 ft 240 kts 273°
2026-04-19 23:52 -23.04449 -42.71543 7119 ft 233 kts 273°
2026-04-19 23:52 -23.04299 -42.73262 6861 ft 229 kts 273°
2026-04-19 23:52 -23.04149 -42.74989 6534 ft 230 kts 273°
2026-04-19 23:53 -23.04000 -42.76716 6245 ft 230 kts 273°
2026-04-19 23:53 -23.03850 -42.78435 5957 ft 229 kts 273°
2026-04-19 23:53 -23.03693 -42.80171 5658 ft 229 kts 276°
2026-04-19 23:53 -23.03292 -42.81828 5471 ft 227 kts 296°
2026-04-19 23:54 -23.02368 -42.83224 5464 ft 232 kts 308°
2026-04-19 23:54 -23.01287 -42.84566 4971 ft 241 kts 308°
2026-04-19 23:54 -23.00191 -42.85968 4526 ft 240 kts 307°
2026-04-19 23:54 -22.99154 -42.87346 4259 ft 232 kts 307°
2026-04-19 23:55 -22.98157 -42.88694 4082 ft 222 kts 307°
2026-04-19 23:55 -22.97235 -42.89947 4022 ft 208 kts 307°
2026-04-19 23:55 -22.96329 -42.91176 3966 ft 202 kts 307°
2026-04-19 23:55 -22.95480 -42.92327 3872 ft 193 kts 307°
2026-04-19 23:56 -22.94649 -42.93452 3664 ft 188 kts 306°
2026-04-19 23:56 -22.93838 -42.94553 3460 ft 183 kts 306°
2026-04-19 23:56 -22.93054 -42.95614 3335 ft 175 kts 307°
2026-04-19 23:56 -22.92318 -42.96629 3212 ft 168 kts 304°
2026-04-19 23:57 -22.91660 -42.97613 3135 ft 158 kts 302°
2026-04-19 23:57 -22.91024 -42.98589 3081 ft 157 kts 303°
2026-04-19 23:57 -22.90388 -42.99559 3085 ft 159 kts 303°
2026-04-19 23:57 -22.89740 -43.00540 3086 ft 158 kts 303°
2026-04-19 23:58 -22.89104 -43.01504 3085 ft 158 kts 303°
2026-04-19 23:58 -22.88462 -43.02478 2973 ft 161 kts 303°
2026-04-19 23:58 -22.87807 -43.03473 2694 ft 159 kts 302°
2026-04-19 23:58 -22.87328 -43.04522 2389 ft 156 kts 283°
2026-04-19 23:59 -22.87115 -43.05640 2155 ft 146 kts 280°
2026-04-19 23:59 -22.86884 -43.06723 2194 ft 150 kts 282°
2026-04-19 23:59 -22.86622 -43.07827 2183 ft 149 kts 282°
2026-04-19 23:59 -22.86364 -43.08915 2187 ft 149 kts 282°
2026-04-20 00:00 -22.86107 -43.10007 2187 ft 149 kts 282°
2026-04-20 00:00 -22.85849 -43.11102 2087 ft 152 kts 282°
2026-04-20 00:00 -22.85587 -43.12210 1802 ft 150 kts 282°
2026-04-20 00:00 -22.85472 -43.13305 1524 ft 146 kts 269°
2026-04-20 00:01 -22.85467 -43.14407 1281 ft 143 kts 268°
2026-04-20 00:01 -22.85525 -43.15445 1094 ft 135 kts 254°
2026-04-20 00:01 -22.86882 -43.16578 743 ft 143 kts 174°
2026-04-20 00:02 -22.87886 -43.16461 517 ft 139 kts 178°
2026-04-20 00:02 -22.88867 -43.16411 364 ft 142 kts 178°
2026-04-20 00:02 -22.89866 -43.16353 189 ft 144 kts 178°
2026-04-20 00:02 -22.90876 -43.16293 28 ft 140 kts 177°
2026-04-20 00:03 -22.91546 -43.16253 25 ft 51 kts 177°
2026-04-20 00:03 -22.91648 -43.16260 24 ft 0 kts 339°
2026-04-20 00:03 -22.91589 -43.16308 25 ft 19 kts 312°
2026-04-20 00:03 -22.91494 -43.16406 25 ft 15 kts 314°
2026-04-20 00:04 -22.91430 -43.16476 26 ft 4 kts 318°
2026-04-20 00:04 -22.91411 -43.16492 26 ft 2 kts 329°
2026-04-20 00:04 -22.91377 -43.16502 26 ft 8 kts 355°
2026-04-20 00:04 -22.91301 -43.16507 26 ft 7 kts 356°
2026-04-20 00:05 -22.91281 -43.16520 26 ft 2 kts 287°
2026-04-20 00:05 -22.91279 -43.16541 26 ft 3 kts 268°
2026-04-20 00:05 -22.91281 -43.16572 26 ft 0 kts 266°
2026-04-20 00:05 -22.91281 -43.16573 26 ft 0 kts 266°